Regional Weather Roundup
Issued by NWS

Current Version | Previous Version | Text Only | Print | Product List | Glossary On
Versions: 1 2 3 4 5 6 7 8 9 10 11 12 13 14 15 16 17 18 19 20 21 22 23 24 25 26 27
000
ASUS45 KBOU 251307
RWRCO

WEATHER ROUNDUP FOR COLORADO
NATIONAL WEATHER SERVICE DENVER/BOULDER CO
700 AM MDT TUE JUL 25 2017

NOTE: "FAIR" INDICATES FEW OR NO CLOUDS BELOW 12000 FEET WITH NO
SIGNIFICANT WEATHER AND/OR OBSTRUCTIONS TO VISIBILITY.

COZ001>005-013-030-031-251400-
...NORTHWEST COLORADO...

CITY           SKY/WX    TMP DP  RH WIND       PRES   REMARKS
CRAIG          CLOUDY    61  57  87 W5        30.24R
HAYDEN         FAIR      63  46  55 SW6       30.26R
MEEKER         LGT RAIN  61  59  93 CALM      30.26S
RABBIT EARS PA CLOUDY    50  45  81 NW3       30.53R
STEAMBOAT SPGS FAIR      60  48  65 CALM      30.27S
WALDEN         FAIR      57  43  58 S3        30.35S
$$

COZ006>008-011-251400-
...WEST CENTRAL VALLEYS...

CITY           SKY/WX    TMP DP  RH WIND       PRES   REMARKS
GRAND JUNCTION CLOUDY    65  63  93 E9        30.16S
MONTROSE       LGT RAIN  63  61  93 SE3       30.26R
EAGLE          MOCLDY    63  54  72 E5        30.29S
RIFLE          LGT RAIN  64  61  90 CALM      30.23R
DELTA          CLOUDY    67  61  81 CALM      30.22R HAZE
NUCLA          CLOUDY    63  59  88 CALM      30.28S
$$

COZ017>023-064>068-251400-
...SOUTHWEST COLORADO...

CITY           SKY/WX    TMP DP  RH WIND       PRES   REMARKS
DURANGO        CLOUDY    60  57  89 S3        30.29R
CORTEZ         MOCLDY    64  62  93 CALM      30.23R
PAGOSA SPRINGS CLOUDY    60  57  91 CALM      30.38R
TELLURIDE      CLOUDY    55  53  92 SE3       30.45S
WOLF CREEK PAS FOG       45  45 100 S14G20    30.69R VSB<1/4
$$

COZ009-010-012-014-032>034-037-058>063-251400-
...CENTRAL COLORADO...

CITY           SKY/WX    TMP DP  RH WIND       PRES   REMARKS
ASPEN          CLOUDY    59  51  75 CALM      30.34R
BUENA VISTA    LGT RAIN  57  54  88 NW3       30.38S
COPPER MTN     DRIZZLE   50  41  71 S12       30.64F
BERTHOUD PASS  CLOUDY    45  32  61 W8G20     30.69R
COTTONWOOD PAS DRIZZLE   55  46  71 W3        30.50S
GUNNISON       FAIR      56  54  93 N5        30.39R
KREMMLING      FAIR      66  46  48 CALM      30.33R
LEADVILLE      CLOUDY    49  47  93 N3        30.49F
MONARCH PASS     N/A     45  43  93 W15       30.74S
SALIDA         CLOUDY    64  52  65 W7        30.42R
SUNLIGHT       CLOUDY    48  43  81 S3        30.57S
WILKERSON PASS CLOUDY    46  43  87 W10G18    30.61R
$$

COZ069>075-251400-
...SAN LUIS VALLEY/SANGRE DE CRISTO MOUNTAINS...

CITY           SKY/WX    TMP DP  RH WIND       PRES   REMARKS
ALAMOSA        FAIR      59  56  89 NW3       30.35R
DEL NORTE      CLOUDY    59  52  76 SW6       30.40R
LA VETA PASS   NOT AVBL
SAGUACHE         N/A    N/A N/A N/A MISG        N/A
$$

COZ035-036-038>040-251400-
...NORTHERN COLORADO FRONT RANGE...

CITY           SKY/WX    TMP DP  RH WIND       PRES   REMARKS
DENVER INTL AP PTSUNNY   73  48  41 SW10      30.07R
DMNS CITY PARK   N/A     72  49  43 SW2G8     30.06S
AURORA         PTSUNNY   71  50  47 W3        30.09R
FRONT RANGE AP FAIR      72  48  43 SW7       30.09R
ERIE MUNI ARPT FAIR      65  50  58 CALM      30.06S
BOULDER MUN AP FAIR      70  45  40 SW6       30.07R
CENTENNIAL     PTSUNNY   77  45  32 SW9       30.10S
BROOMFIELD     FAIR      70  41  35 W6        30.10S
FORT COLLINS   FAIR      66  53  63 N3        30.05R
LONGMONT       FAIR      66  53  63 CALM      30.07R
$$

COZ041-046-047-076>085-087-088-251400-
...PIKES PEAK/PALMER DIVIDE AND SOUTHERN FOOTHILLS...

CITY           SKY/WX    TMP DP  RH WIND       PRES   REMARKS
COLO. SPRINGS  PTSUNNY   69  55  60 CALM      30.17S
A. F. ACADEMY  PTSUNNY   73  46  37 SW7       30.19R
SCHRIEVER AFB  PTSUNNY   66  53  64 N5        30.17S
CHEYENNE MTN   PTSUNNY   72  45  38 CALM      30.18R
ELLICOTT       NOT AVBL
FALCON           N/A     70  45  40 W15       30.22S
FORT CARSON    FAIR      68  52  56 W3        30.14R
LIMON          FAIR      62  61  96 S3        30.12R
MONUMENT HILL  FAIR      66  48  52 SW8       30.24S
CANON CITY     MOSUNNY   73  54  49 W8        30.12R
WALSENBURG     FAIR      73  54  49 SW10      30.18R
TRINIDAD       FAIR      70  53  54 W10       30.16R
$$

COZ042>045-048>051-090-091-251400-
...NORTHEAST COLORADO...

CITY           SKY/WX    TMP DP  RH WIND       PRES   REMARKS
GREELEY ARPT   FAIR      63  56  78 E3        30.04R
AKRON          FAIR      70  60  70 S13       30.04R
BURLINGTON     FAIR      69  65  86 S17       30.05R
WRAY           NOT AVBL
YUMA           FAIR      68  61  77 S8        30.02S
STERLING       FAIR      64  63  94 SW5       29.99S
HOLYOKE        FAIR      68  63  83 S3        30.00S
FORT MORGAN    FAIR      69  59  70 SE6       30.03S
$$

COZ086-089-092>099-251400-
...SOUTHEAST COLORADO...

CITY           SKY/WX    TMP DP  RH WIND       PRES   REMARKS
PUEBLO         FAIR      71  56  58 W8G18     30.06R
LA JUNTA       FAIR      74  57  55 S8        30.03R
LAMAR          FAIR      72  64  76 E6        30.01R
SPRINGFIELD      N/A     71  62  73 SW10      30.08S
$$




USA.gov is the U.S. government's official web portal to all federal, state and local government web resources and services.